Location: Unspecified
(0.0000°N, 0.0000°E)
Time: 02:18:07
(UTC+00:00)

Envisat - Pass Details

Date: 20 October 2020
Orbit: 764 x 766 km, 98.1° (Epoch: 25 October)

Event Time Altitude Azimuth Distance (km) Brightness Sun altitude
Rises 04:52:25 0° 34° (NE) 3,215 6.6 -12.9°
Reaches altitude 10° 04:55:03 10° 47° (NE) 2,292 6.0 -12.2°
Maximum altitude 04:59:12 26° 102° (ESE) 1,475 5.5 -11.2°
Drops below altitude 10° 05:03:22 10° 158° (SSE) 2,301 5.9 -10.2°
Sets 05:06:00 0° 170° (S) 3,229 6.5 -9.5°
